Location: Unnamed
(33.0780°N, 97.0417°W)
Time: 10:36:51
(UTC-05:00)

X-37B - Visible Passes

Search period start: 25 September 2022 00:00
Search period end: 05 October 2022 00:00
Orbit: 330 x 340 km, 45.0° (Epoch: 02 September)

Date Brightness Start Highest point End Pass type
(mag) Time Alt. Az. Time Alt. Az. Time Alt. Az.
25 Sep 2.4 05:40:04 23° NNE 05:40:04 23° NNE 05:41:35 10° NE visible
26 Sep 2.6 05:59:45 16° NNW 05:59:45 16° NNW 06:01:29 10° NNE visible
02 Oct 3.1 06:27:21 10° NNW 06:28:42 13° NNE 06:30:03 10° NE visible
03 Oct 2.4 06:47:05 10° NNW 06:49:28 23° NNE 06:51:50 10° E visible
04 Oct 3.4 05:34:27 12° NNE 05:34:27 12° NNE 05:35:28 10° NE visible
